Wetbulb
73.82 75.90 78.28 78.56 78.36 78.32 78.05 77.86 78.03 77.69 76.85 76.73 76.69 76.68 76.58 76.83 76.68 76.84 76.93 76.93 76.70 76.85 76.49 76.00 75.83 75.69 76.02 76.22 76.45 76.83 76.70 76.81 76.91 76.67 77.34 77.11 77.17 77.10 76.86 75.88 76.38 74.35 74.57
74.68 76.09 78.24 78.50 78.61 78.59 78.20 78.23 77.99 78.07 76.93 76.76 76.89 76.90 76.72 77.17 76.58 76.55 76.87 76.92 76.16 76.26 77.22 76.83 76.16 76.05 76.24 76.32 76.89 76.77 76.38 76.77 76.42 76.85 76.49 75.88 76.37 75.11 76.32 77.64 76.71 75.20 75.38
74.55 75.91 76.47 78.39 78.57 78.44 78.52 78.49 78.23 77.95 76.84 76.90 76.90 77.01 76.94 76.71 76.73 76.37 76.60 76.76 76.85 76.49 76.44 76.96 77.05 77.04 77.07 76.84 76.75 76.16 76.07 76.67 76.96 77.58 77.66 72.56 72.78 75.96 74.80 75.49 76.40 76.09 75.21
75.26 75.36 75.64 78.10 78.58 78.73 78.58 78.36 78.50 77.85 76.91 76.81 76.94 76.73 76.79 77.01 76.66 76.66 76.57 76.52 76.71 76.68 76.44 76.41 76.96 76.91 76.96 76.58 76.81 76.29 76.33 76.48 76.02 76.88 75.26 73.38 73.30 76.18 75.60 76.48 75.15 75.47 75.73
75.11 74.97 75.92 78.58 78.72 78.28 78.33 78.54 78.58 78.52 77.24 76.83 76.82 76.63 76.99 76.49 76.68 76.60 76.63 76.71 76.79 76.76 76.48 76.53 76.81 76.66 76.75 76.07 76.35 76.44 75.52 75.41 75.16 75.56 75.59 72.12 73.54 75.82 76.49 76.20 75.79 75.59 76.33
74.71 75.51 77.52 78.70 78.20 78.20 77.91 78.29 78.28 78.35 78.08 77.69 77.18 77.27 77.19 76.87 77.42 76.63 76.64 76.29 76.29 76.08 76.46 76.52 76.19 75.86 76.02 76.50 75.87 76.33 76.16 76.06 76.04 75.05 73.45 73.84 73.90 76.35 76.16 75.64 75.52 75.41 74.78
74.74 76.69 77.00 78.65 78.53 78.30 78.51 78.20 78.27 78.21 77.95 77.70 77.01 77.03 77.13 77.17 76.77 76.62 76.58 76.43 75.86 75.19 76.50 76.30 75.69 75.94 76.56 76.32 76.61 75.91 75.24 75.22 73.99 73.63 73.80 72.22 74.40 76.44 75.35 74.77 74.11 74.53 73.88
76.30 76.05 76.52 78.32 78.54 78.30 77.63 78.20 78.19 77.78 77.42 77.59 77.04 77.14 76.90 77.11 76.74 76.74 76.55 76.55 75.75 75.25 76.29 76.53 76.15 76.33 76.56 76.20 75.16 74.64 75.00 74.47 74.98 73.26 74.26 74.06 76.33 76.98 75.79 75.41 75.92 75.42 75.44
75.52 75.71 76.49 76.55 77.29 77.58 77.49 77.58 77.96 77.73 77.45 77.83 77.64 77.18 77.00 76.83 76.67 76.57 76.72 76.50 76.37 76.73 76.18 76.30 76.51 76.70 76.26 75.85 75.41 75.54 76.06 76.37 74.83 74.54 74.34 73.81 76.52 76.60 76.39 75.65 74.92 75.80 74.59
76.17 75.36 75.65 76.30 76.73 76.49 76.44 78.11 77.75 77.75 77.64 77.41 77.00 77.08 76.83 76.93 76.83 76.66 76.59 76.61 76.37 76.35 76.21 76.48 76.05 76.58 76.70 75.70 75.68 75.76 76.38 76.32 74.12 74.38 72.91 72.87 75.96 75.92 75.57 75.25 75.61 74.52 73.73
75.25 75.43 75.76 76.11 76.49 76.71 76.35 77.17 78.03 76.93 76.73 76.90 76.40 76.47 76.84 76.08 75.89 75.80 76.71 76.97 76.35 75.47 76.35 76.53 76.10 76.80 76.53 75.63 75.96 76.65 76.12 73.73 73.73 73.44 72.62 75.45 75.77 76.01 75.37 76.09 76.28 75.38 74.31
73.40 74.38 75.31 76.02 76.05 76.33 75.14 76.64 76.56 76.19 75.99 76.05 76.29 76.44 76.80 77.16 76.16 75.61 76.32 76.79 76.86 75.44 76.31 76.53 77.18 76.89 75.54 73.87 73.98 75.91 74.33 73.38 74.07 73.00 72.50 76.31 76.46 76.79 76.59 76.27 75.95 74.84 74.23
74.64 75.04 75.84 76.10 76.79 76.21 76.22 76.13 75.46 76.22 75.90 76.44 76.54 76.37 77.43 75.76 77.26 75.66 75.64 75.49 75.43 75.05 74.53 75.69 75.84 75.13 73.92 73.63 72.80 73.14 72.72 72.69 72.68 73.40 74.14 76.17 76.92 77.17 76.58 77.05 76.73 75.40 74.84
74.35 74.99 76.01 76.72 76.68 77.01 77.21 76.11 76.01 75.24 76.02 75.10 76.39 75.59 75.89 74.84 74.47 76.26 74.77 75.32 76.17 73.97 73.24 74.29 73.78 73.75 73.51 73.36 72.19 72.41 74.00 73.32 71.35 73.98 74.52 76.28 76.29 76.61 76.76 76.76 77.01 76.55 75.66
73.78 74.83 75.61 76.86 76.39 76.48 76.68 76.32 76.00 75.45 76.02 75.55 76.17 76.05 75.34 74.83 74.25 74.59 75.15 76.04 75.26 74.52 73.44 73.30 73.67 72.87 72.73 74.61 74.56 74.53 73.04 74.02 74.82 74.16 74.16 76.93 76.46 76.36 77.00 76.64 76.95 77.01 76.38
74.53 75.38 76.12 76.72 77.31 77.06 76.11 76.84 75.86 76.36 76.85 77.18 75.44 76.03 76.88 75.57 75.21 73.35 73.12 74.77 73.97 75.72 73.79 72.25 74.18 72.81 74.79 73.42 72.77 74.16 74.14 74.02 74.59 75.48 74.70 76.26 77.39 76.79 77.01 77.42 77.41 77.46 77.13
74.46 75.34 75.84 76.47 77.80 76.61 76.73 76.38 76.52 75.77 75.37 76.36 74.79 75.62 76.08 76.94 75.36 74.84 74.45 74.34 73.51 75.93 77.85 76.79 76.73 76.12 73.05 74.37 74.74 73.67 73.58 73.78 73.59 74.80 75.33 75.35 75.93 77.47 77.19 77.37 77.46 77.38 77.23
74.75 75.56 76.04 75.94 76.44 76.66 76.43 76.51 76.62 76.66 75.97 73.78 74.98 76.11 76.76 76.08 76.00 76.79 74.31 74.86 73.71 76.33 75.86 75.99 76.19 75.23 74.38 73.48 72.95 73.35 72.33 72.74 72.79 74.08 74.97 74.95 75.00 75.06 76.32 77.08 76.77 77.19 77.39
75.01 75.59 75.55 75.69 75.80 76.12 76.94 77.19 76.74 78.00 76.66 75.53 75.91 75.60 77.30 76.28 76.38 75.53 75.23 74.76 77.06 75.99 75.92 75.16 74.26 75.31 74.22 73.91 73.79 74.24 74.19 73.56 74.09 73.63 73.49 73.78 75.16 75.05 75.08 76.64 76.84 76.64 77.61
75.48 76.32 76.31 76.42 75.99 76.84 76.92 77.14 75.83 75.57 76.22 74.42 75.89 75.83 76.27 76.40 76.63 76.36 75.64 75.37 75.64 75.16 75.02 76.13 73.97 75.41 73.87 73.01 72.73 71.82 72.73 73.45 73.84 73.83 73.78 73.75 74.66 75.83 75.35 75.87 75.91 75.82 77.09
75.32 75.41 75.91 75.80 77.00 76.10 75.37 74.09 74.44 72.71 73.89 73.47 74.80 76.74 75.40 75.76 76.12 76.27 74.68 75.40 75.79 74.65 74.15 75.22 73.98 73.87 72.69 73.74 72.13 72.05 73.10 74.86 74.87 74.57 74.61 73.08 74.36 75.19 74.22 76.81 75.49 75.33 75.69
74.85 74.89 75.91 75.81 76.43 76.34 75.59 74.43 74.50 75.08 74.54 74.78 76.91 77.33 76.36 75.38 76.23 76.00 75.61 75.86 76.34 75.11 74.72 75.01 74.67 73.31 73.12 73.24 70.89 69.63 67.49 70.61 72.60 72.90 73.14 73.78 73.98 74.14 73.76 75.05 76.44 75.53 75.41
74.16 75.04 75.10 76.65 76.27 76.32 76.33 75.41 74.92 75.50 77.21 74.17 74.52 74.78 75.69 76.08 76.21 76.14 76.21 74.77 75.72 75.26 72.63 74.01 73.02 73.36 71.42 72.18 73.28 68.43 65.61 65.36 68.86 72.64 72.32 72.66 72.98 73.48 73.53 73.53 74.90 75.82 76.73
74.17 76.27 76.05 76.64 76.97 76.30 76.50 75.04 74.55 72.74 71.83 73.99 74.80 75.08 75.26 76.39 76.17 75.52 75.18 75.53 75.89 75.58 74.35 72.95 75.15 73.09 71.96 70.48 72.53 71.77 71.01 70.64 66.87 66.20 71.68 71.77 71.17 71.45 75.31 75.61 75.33 76.05 75.52
74.75 75.61 76.63 76.08 77.50 76.69 76.40 75.72 74.63 73.38 74.31 74.27 74.97 75.96 74.96 75.43 76.17 75.58 75.35 74.42 74.38 75.42 74.14 73.52 73.94 74.07 73.45 72.02 71.26 70.63 71.26 70.58 70.68 68.35 65.95 67.00 71.17 72.04 72.53 74.15 73.67 74.79 76.55
74.94 75.57 76.20 76.27 76.42 77.43 76.97 77.26 75.51 74.47 74.14 73.09 73.04 74.28 73.87 75.04 75.32 75.89 75.54 74.97 74.99 75.24 73.78 73.93 73.86 73.36 73.32 73.02 71.58 71.28 70.26 69.75 68.57 68.48 67.00 67.58 68.27 69.73 73.04 71.49 72.79 74.83 75.39
MSLP
1007.29 1008.57 1009.47 1009.88 1010.29 1010.70 1011.07 1011.47 1011.82 1012.08 1012.47 1012.64 1012.74 1013.16 1013.51 1013.83 1014.16 1014.53 1014.76 1014.92 1015.15 1015.18 1015.25 1015.47 1015.62 1015.84 1015.95 1016.09 1016.12 1016.24 1016.34 1016.53 1016.55 1016.57 1016.53 1016.86 1017.13 1017.40 1017.59 1017.68 1017.64 1018.11 1018.45
1007.14 1008.61 1009.41 1009.90 1010.37 1010.68 1011.08 1011.47 1011.85 1012.15 1012.55 1012.79 1013.00 1013.35 1013.70 1013.93 1014.31 1014.70 1015.02 1015.01 1015.35 1015.28 1015.37 1015.64 1015.77 1016.02 1016.15 1016.30 1016.38 1016.50 1016.53 1016.65 1016.72 1016.74 1016.86 1017.17 1017.42 1017.64 1017.70 1017.45 1018.09 1018.41 1018.62
1007.23 1008.59 1009.41 1009.92 1010.48 1010.86 1011.21 1011.57 1011.88 1012.21 1012.59 1012.95 1013.31 1013.51 1013.79 1014.10 1014.55 1014.77 1015.11 1015.14 1015.32 1015.47 1015.75 1015.81 1015.92 1016.16 1016.34 1016.54 1016.53 1016.64 1016.66 1016.78 1016.85 1016.86 1016.72 1017.07 1017.68 1017.81 1017.92 1018.06 1018.36 1018.58 1018.75
1007.34 1008.68 1009.43 1010.11 1010.53 1011.02 1011.39 1011.76 1012.05 1012.36 1012.69 1013.02 1013.39 1013.77 1013.98 1014.35 1014.64 1014.91 1015.15 1015.23 1015.42 1015.55 1015.75 1016.03 1016.07 1016.28 1016.56 1016.75 1016.73 1016.76 1016.80 1016.95 1016.85 1016.94 1017.02 1016.85 1017.44 1018.02 1018.16 1018.34 1018.58 1018.82 1018.97
1007.25 1008.23 1009.51 1010.27 1010.64 1011.10 1011.54 1011.91 1012.21 1012.51 1012.87 1013.17 1013.53 1013.82 1014.05 1014.42 1014.69 1015.06 1015.27 1015.43 1015.54 1015.66 1015.96 1016.17 1016.29 1016.47 1016.71 1016.87 1017.00 1016.95 1016.86 1016.92 1017.00 1017.06 1017.04 1016.99 1017.59 1018.28 1018.41 1018.60 1018.80 1019.01 1019.05
1006.65 1007.75 1009.70 1010.39 1010.84 1011.20 1011.63 1011.99 1012.40 1012.72 1013.07 1013.34 1013.65 1013.89 1014.18 1014.65 1014.78 1015.08 1015.30 1015.56 1015.74 1015.85 1016.01 1016.22 1016.36 1016.60 1016.84 1017.02 1017.14 1017.05 1016.88 1016.97 1017.06 1016.74 1016.80 1017.20 1017.88 1018.50 1018.61 1018.69 1019.03 1019.29 1019.51
1006.28 1007.95 1009.47 1010.45 1011.01 1011.43 1011.77 1012.10 1012.54 1012.91 1013.21 1013.50 1013.83 1014.14 1014.42 1014.66 1014.95 1015.13 1015.44 1015.65 1015.88 1016.00 1016.15 1016.34 1016.48 1016.78 1017.02 1017.19 1017.22 1017.17 1017.03 1016.93 1017.07 1016.68 1017.06 1017.64 1018.28 1018.60 1018.74 1018.95 1019.19 1019.48 1019.67
1006.75 1008.09 1009.27 1010.27 1011.01 1011.52 1011.98 1012.28 1012.59 1013.03 1013.36 1013.64 1013.91 1014.19 1014.59 1014.78 1015.01 1015.24 1015.61 1015.75 1015.96 1016.07 1016.35 1016.49 1016.72 1016.88 1017.12 1017.29 1017.28 1017.22 1017.03 1017.16 1016.85 1016.82 1016.97 1017.73 1018.27 1018.59 1018.86 1019.09 1019.28 1019.56 1019.73
1006.82 1008.14 1009.30 1010.15 1010.91 1011.49 1011.94 1012.40 1012.72 1013.04 1013.38 1013.71 1014.03 1014.33 1014.67 1014.88 1015.02 1015.34 1015.59 1015.89 1016.01 1016.20 1016.44 1016.65 1016.79 1016.96 1017.20 1017.30 1017.36 1017.15 1016.95 1016.94 1016.92 1016.26 1016.93 1017.80 1018.12 1018.51 1018.87 1019.16 1019.34 1019.56 1019.76
1006.65 1008.07 1009.13 1009.87 1010.75 1011.26 1011.79 1012.30 1012.76 1013.09 1013.37 1013.71 1014.01 1014.28 1014.61 1014.85 1015.10 1015.34 1015.67 1015.92 1016.06 1016.27 1016.42 1016.62 1016.82 1017.01 1017.21 1017.36 1017.39 1017.08 1016.90 1017.02 1016.88 1016.36 1016.87 1017.48 1018.05 1018.41 1018.85 1019.10 1019.33 1019.57 1019.79
1006.69 1007.77 1008.75 1009.62 1010.48 1011.04 1011.53 1012.14 1012.65 1013.10 1013.42 1013.65 1013.93 1014.15 1014.47 1014.58 1014.83 1015.24 1015.47 1015.74 1016.04 1016.21 1016.40 1016.61 1016.82 1017.04 1017.18 1017.26 1017.22 1016.95 1017.00 1016.64 1016.06 1016.10 1016.71 1017.45 1017.79 1018.33 1018.74 1019.04 1019.26 1019.53 1019.75
1006.73 1007.49 1008.41 1009.24 1010.09 1010.67 1010.96 1011.80 1012.39 1012.87 1013.29 1013.46 1013.72 1013.97 1014.18 1014.21 1014.48 1014.77 1015.07 1015.69 1015.89 1016.16 1016.36 1016.59 1016.73 1016.96 1017.10 1016.96 1016.85 1016.93 1016.84 1016.14 1015.90 1016.18 1016.64 1017.26 1017.48 1018.04 1018.54 1018.94 1019.23 1019.48 1019.72
1006.40 1007.13 1008.06 1008.88 1009.67 1010.37 1010.73 1011.40 1011.99 1012.28 1012.80 1013.12 1013.37 1013.77 1013.97 1014.38 1014.36 1014.54 1015.14 1015.45 1015.79 1016.06 1016.20 1016.50 1016.70 1016.83 1016.67 1016.53 1016.23 1016.34 1016.03 1015.85 1015.59 1015.77 1016.47 1017.00 1017.26 1017.64 1018.26 1018.66 1019.00 1019.32 1019.55
1005.88 1006.72 1007.53 1008.51 1009.35 1010.04 1010.43 1011.08 1011.31 1011.88 1012.29 1012.82 1013.10 1013.53 1014.07 1014.39 1014.57 1014.56 1014.95 1014.84 1015.41 1015.71 1015.82 1016.01 1016.20 1016.36 1016.12 1016.04 1015.97 1016.01 1015.76 1015.36 1015.47 1016.28 1016.56 1016.85 1017.11 1017.29 1017.91 1018.34 1018.66 1018.97 1019.28
1005.34 1006.38 1007.06 1007.99 1009.01 1009.72 1010.32 1010.66 1010.75 1011.08 1011.61 1011.97 1012.50 1013.14 1013.62 1014.09 1014.40 1014.43 1014.49 1014.56 1015.10 1015.19 1015.43 1015.55 1015.65 1015.73 1015.64 1015.56 1015.60 1015.52 1015.56 1015.44 1015.58 1016.10 1016.62 1016.58 1016.94 1017.04 1017.45 1017.92 1018.26 1018.56 1018.90
1004.64 1005.79 1006.77 1007.54 1008.32 1009.16 1009.81 1010.32 1010.41 1010.45 1011.00 1011.36 1012.11 1012.62 1013.10 1013.54 1013.99 1014.21 1014.27 1014.38 1014.60 1014.58 1014.80 1015.00 1015.14 1015.34 1015.28 1015.25 1015.38 1015.38 1015.56 1015.50 1015.45 1015.73 1016.35 1016.57 1016.85 1016.98 1017.31 1017.50 1017.76 1018.09 1018.34
1004.24 1005.38 1006.28 1007.09 1007.88 1008.66 1009.29 1009.87 1010.02 1010.03 1010.41 1011.02 1011.68 1012.30 1012.59 1013.17 1013.55 1013.90 1014.10 1014.22 1014.23 1014.28 1014.25 1014.59 1014.45 1014.59 1015.07 1014.94 1015.19 1015.25 1015.59 1015.68 1015.49 1015.34 1015.47 1016.29 1016.20 1016.55 1016.88 1017.22 1017.46 1017.76 1017.94
1003.81 1004.93 1005.78 1006.69 1007.45 1008.22 1008.87 1009.34 1009.48 1009.48 1009.79 1010.50 1011.09 1011.70 1012.20 1012.69 1013.12 1013.32 1013.76 1013.83 1013.80 1014.06 1014.15 1014.54 1014.63 1014.82 1014.96 1015.26 1015.25 1015.31 1015.63 1015.56 1015.55 1015.46 1015.48 1015.49 1015.83 1015.90 1016.25 1016.74 1016.91 1017.15 1017.48
1003.23 1004.38 1005.46 1006.08 1007.03 1007.79 1008.46 1008.89 1009.28 1009.40 1009.72 1010.20 1010.38 1011.02 1011.64 1012.09 1012.56 1013.02 1013.41 1013.07 1013.01 1013.51 1014.10 1014.66 1014.85 1014.96 1015.13 1015.27 1015.32 1015.25 1015.18 1015.26 1015.21 1015.05 1015.20 1015.22 1015.27 1015.53 1015.70 1015.92 1016.29 1016.64 1016.79
1002.90 1003.92 1004.77 1005.56 1006.58 1007.32 1008.08 1008.71 1009.17 1009.42 1009.71 1009.65 1010.17 1010.34 1010.96 1011.43 1011.85 1012.64 1012.77 1013.04 1013.04 1013.53 1013.99 1014.38 1014.58 1014.83 1015.06 1015.24 1015.07 1014.82 1014.87 1014.88 1014.90 1014.97 1014.86 1014.65 1014.71 1014.89 1015.28 1015.53 1015.87 1016.17 1016.33
1002.63 1003.55 1004.43 1005.08 1005.95 1006.87 1007.53 1008.10 1008.67 1008.90 1009.09 1009.41 1009.70 1009.88 1010.36 1011.23 1011.53 1011.90 1012.49 1012.74 1013.10 1013.66 1013.99 1014.17 1014.49 1014.82 1014.96 1015.07 1015.28 1015.00 1014.86 1014.68 1014.66 1014.67 1014.49 1014.37 1014.35 1014.52 1014.59 1014.67 1015.04 1015.29 1015.53
1001.92 1003.03 1004.08 1004.86 1005.48 1006.37 1006.85 1007.40 1007.85 1008.01 1008.30 1008.86 1009.28 1009.59 1010.17 1010.93 1011.13 1011.49 1011.99 1012.31 1012.80 1013.34 1013.83 1013.92 1014.26 1014.53 1014.67 1014.81 1015.33 1015.47 1015.30 1014.99 1014.53 1014.10 1014.12 1014.02 1013.98 1013.87 1013.99 1014.17 1014.47 1014.76 1014.94
1000.87 1002.30 1003.42 1004.39 1005.11 1005.79 1006.40 1007.04 1007.59 1007.62 1007.74 1008.46 1008.85 1009.15 1009.55 1010.09 1010.72 1011.14 1011.40 1012.12 1012.63 1013.03 1013.23 1013.64 1013.91 1014.21 1014.39 1014.42 1014.72 1015.10 1015.05 1014.78 1013.97 1013.42 1013.55 1013.58 1013.64 1013.78 1013.59 1013.39 1013.67 1013.89 1014.28
999.96 1001.61 1002.77 1003.78 1004.55 1005.25 1005.82 1006.24 1006.47 1006.74 1007.04 1007.26 1007.75 1008.57 1008.95 1009.30 1010.09 1010.65 1011.07 1011.55 1012.09 1012.62 1012.91 1013.14 1013.51 1013.76 1014.04 1014.17 1014.42 1014.34 1014.39 1014.26 1014.49 1014.11 1013.68 1013.68 1013.37 1014.28 1012.86 1013.10 1013.25 1013.58 1013.74
999.16 1000.65 1002.06 1003.41 1004.16 1004.78 1005.17 1005.45 1005.93 1006.23 1006.36 1006.66 1007.04 1007.55 1008.29 1008.89 1009.28 1009.82 1010.43 1011.22 1011.60 1011.94 1012.43 1012.70 1012.89 1013.18 1013.38 1013.73 1013.79 1013.92 1014.13 1014.27 1014.43 1014.76 1014.47 1014.33 1014.29 1013.47 1012.92 1012.86 1013.02 1013.14 1013.34
998.80 999.86 1001.22 1002.41 1003.40 1004.16 1004.67 1004.90 1005.24 1005.64 1005.84 1006.15 1006.51 1006.83 1007.52 1008.11 1008.77 1009.15 1009.62 1010.41 1011.00 1011.38 1011.55 1012.03 1012.43 1012.67 1012.91 1013.15 1013.48 1013.73 1013.96 1014.12 1014.17 1014.34 1014.62 1014.20 1014.16 1013.95 1013.22 1013.10 1013.00 1013.08 1013.32
Wind_Speed
20 21 18 15 15 13 13 14 14 13 13 13 14 13 13 12 12 10 10 11 9 10 11 11 10 8 8 9 10 12 12 12 12 14 17 15 13 12 10 9 17 15 15
24 21 19 16 14 14 12 12 12 13 13 12 13 13 12 12 10 9 9 11 9 10 11 10 11 8 8 9 10 11 11 11 12 14 16 13 12 11 13 14 16 13 15
23 20 19 18 15 14 13 11 12 13 13 12 11 12 11 11 10 9 8 8 8 11 9 11 13 11 12 11 11 10 10 9 10 14 18 11 9 13 14 16 16 14 14
22 19 18 17 16 14 13 12 12 14 13 13 12 12 11 9 8 8 8 8 8 9 10 10 11 12 11 10 10 10 7 6 9 10 6 10 11 11 13 13 13 13 13
21 19 18 17 17 16 14 12 12 14 14 13 12 11 10 9 10 9 8 10 8 10 9 10 11 10 11 10 9 8 6 7 7 7 4 9 8 10 13 12 11 11 13
21 22 21 18 17 17 16 14 12 12 13 12 11 10 10 10 10 9 9 9 9 8 9 9 10 10 11 10 10 7 6 4 5 8 10 12 11 12 10 12 13 12 11
17 22 21 19 16 15 14 15 13 12 11 10 11 11 10 9 10 10 9 10 9 8 9 10 11 10 10 10 9 6 6 8 6 4 10 11 10 12 11 12 11 11 10
21 21 20 20 17 15 15 14 14 13 13 12 11 10 10 9 9 9 9 9 9 8 8 11 8 12 11 9 7 6 8 6 7 8 12 10 13 11 11 10 11 11 10
19 19 15 16 15 17 15 14 13 14 13 12 11 10 10 9 9 9 10 9 9 9 9 10 11 11 10 9 6 7 10 10 7 2 13 8 14 13 11 10 9 10 8
18 18 16 14 12 12 12 14 12 11 12 13 11 9 9 10 10 10 9 9 10 10 11 11 11 10 9 8 8 9 12 11 8 6 10 9 14 14 12 9 9 9 8
15 17 16 15 12 11 11 11 13 14 12 12 11 11 10 7 8 12 12 14 11 10 9 10 11 10 9 9 10 12 10 6 8 4 7 18 16 13 12 9 10 9 8
17 17 16 15 13 12 10 11 10 10 8 8 9 9 7 5 6 10 12 14 12 10 10 12 11 11 10 7 6 10 5 9 5 6 8 18 18 15 11 11 9 9 8
18 14 16 15 12 12 7 9 6 5 6 5 8 7 6 3 3 4 6 6 5 9 6 8 7 6 9 8 6 6 8 8 3 6 12 18 17 16 13 10 11 10 9
18 18 18 17 13 11 6 7 8 8 6 6 5 6 5 3 3 2 5 7 6 6 6 8 6 9 10 9 5 7 2 4 4 3 9 17 17 17 14 12 11 11 10
18 19 18 17 15 12 10 8 8 8 8 10 9 9 6 5 5 4 4 3 6 7 7 7 8 8 8 6 4 2 3 5 2 5 4 17 16 16 16 15 13 13 12
15 19 18 17 16 14 11 10 8 7 9 6 7 10 10 8 7 7 5 5 5 6 6 6 3 7 6 5 5 3 3 5 5 2 6 7 14 14 14 16 16 14 14
14 19 19 18 16 14 13 11 8 7 8 6 9 11 11 6 8 9 8 8 7 5 4 3 0 3 4 4 4 5 4 6 5 5 0 6 8 15 15 16 15 15 15
17 18 19 15 16 15 12 10 7 6 7 6 6 9 11 11 7 5 6 5 8 5 4 3 3 3 3 3 2 4 6 6 7 6 4 3 6 7 11 15 16 16 16
18 15 19 18 18 16 13 8 8 6 5 5 5 10 11 11 11 7 5 4 5 6 6 5 5 3 3 3 4 4 4 5 5 8 8 7 6 6 4 13 17 17 17
17 16 14 14 18 16 11 7 7 7 6 5 5 4 15 9 11 8 6 6 6 5 4 4 7 4 4 6 6 4 5 4 4 4 5 7 5 4 7 8 7 9 17
18 17 17 15 16 13 11 11 9 10 8 7 5 7 9 9 10 11 7 5 5 4 5 5 4 5 5 5 3 5 5 5 5 5 5 5 6 6 6 6 7 6 7
19 19 17 16 15 14 11 10 8 8 8 7 3 4 9 10 9 8 8 4 6 6 5 4 5 3 3 6 3 3 2 3 7 9 8 5 6 6 8 9 7 8 8
21 20 19 17 17 15 12 10 9 7 5 8 8 8 8 11 10 9 8 8 6 4 5 6 6 7 5 4 8 4 2 4 3 4 11 9 7 6 9 11 9 9 7
21 19 19 18 18 16 15 12 13 9 8 6 8 10 9 11 11 10 9 10 7 6 8 7 7 7 7 6 3 6 6 4 1 4 3 1 2 11 2 4 6 6 7
21 20 18 18 17 18 16 13 11 11 8 8 5 8 11 11 12 13 11 10 10 7 7 7 7 9 6 5 6 2 5 4 5 5 5 2 4 4 4 3 3 3 6
19 19 19 20 18 18 17 15 15 14 10 8 10 8 9 9 10 12 12 10 9 8 7 6 6 6 6 4 4 5 6 3 5 4 5 7 4 5 5 3 4 4 4
Wind_Direction
133 142 145 143 143 147 145 146 144 140 138 133 125 121 119 111 109 111 104 105 121 137 128 131 126 121 106 101 98 91 90 94 97 97 92 92 93 93 96 121 107 107 104
132 145 143 141 140 142 143 145 150 144 141 137 136 135 131 125 125 122 119 112 118 125 135 138 134 123 123 130 106 104 108 114 123 121 110 99 91 85 64 81 93 103 101
133 139 145 141 142 140 138 141 150 150 148 143 144 138 135 136 140 137 135 121 125 124 130 136 129 127 118 122 122 116 124 135 146 146 145 117 102 90 87 93 98 103 103
134 146 144 145 145 143 139 138 145 154 153 151 145 150 147 146 154 140 148 135 130 130 136 130 123 122 127 130 126 125 136 150 162 167 215 126 107 105 101 99 108 110 106
134 153 140 147 145 145 143 139 139 148 156 154 154 153 151 147 153 164 148 129 140 132 137 138 130 132 127 125 126 136 166 189 205 215 235 118 110 119 114 114 114 122 110
145 142 144 149 148 148 148 144 145 145 150 153 155 160 147 168 154 160 136 137 139 139 132 145 133 142 140 135 140 162 205 230 261 247 88 94 107 128 129 103 104 109 110
144 132 143 149 150 151 150 150 150 153 156 159 161 165 165 166 160 158 154 151 146 146 140 148 136 142 123 144 147 185 223 236 256 268 113 101 119 130 122 123 123 123 121
125 139 145 148 152 153 158 157 154 160 163 164 162 169 167 161 161 160 161 160 154 148 158 141 136 143 144 147 163 209 238 255 280 222 121 123 134 129 137 137 139 133 128
132 128 142 149 157 159 162 165 166 166 168 168 173 172 163 163 161 167 164 160 165 159 159 153 149 151 152 153 181 236 262 267 288 292 121 128 132 133 141 140 135 136 140
134 138 146 150 162 165 166 168 170 171 174 172 175 171 173 169 170 170 157 167 176 172 165 161 157 159 157 174 205 233 255 276 260 255 121 135 146 145 151 155 161 152 152
138 141 147 151 164 174 167 172 173 178 184 180 181 184 176 188 176 160 188 165 176 177 179 168 167 167 176 190 217 239 265 260 244 217 124 143 147 148 161 160 152 162 167
149 149 151 152 169 176 177 162 182 173 189 191 184 182 201 220 184 176 159 167 171 179 176 181 171 180 193 198 217 231 248 254 256 136 134 153 151 156 166 174 179 179 180
151 154 154 160 166 176 191 154 182 169 179 215 182 187 173 167 176 183 143 161 168 183 188 181 177 200 211 237 210 200 230 234 251 142 148 158 155 157 174 184 187 189 192
163 166 163 161 167 177 161 163 192 167 187 190 178 173 160 161 216 153 175 174 164 172 207 182 191 210 229 226 192 289 249 296 54 95 158 162 163 162 176 189 193 195 201
188 162 165 161 167 179 165 181 205 184 169 192 162 173 167 181 195 196 199 221 162 192 209 194 196 208 219 223 214 239 195 281 349 145 168 170 173 170 178 192 199 202 204
171 159 164 165 166 174 177 196 202 182 169 188 157 173 182 189 178 202 187 198 211 202 195 210 207 198 189 203 240 175 293 299 302 156 163 170 180 181 189 196 199 201 204
172 163 163 167 167 174 187 186 202 174 173 173 168 189 188 169 192 193 192 197 207 222 225 275 240 207 195 232 219 173 200 260 284 290 220 182 176 188 190 203 203 206 211
167 166 165 173 172 177 182 185 207 169 178 182 190 169 190 166 197 210 206 204 189 192 182 218 221 221 214 229 248 195 193 216 222 250 269 264 197 180 197 212 204 205 212
166 176 169 170 175 175 181 182 189 203 198 184 191 168 176 174 179 205 224 216 187 172 172 194 226 191 266 271 235 232 221 209 205 210 211 237 211 186 191 204 203 213 210
166 171 178 167 170 170 174 177 186 216 209 199 191 192 172 178 171 190 215 239 186 186 200 204 216 207 207 229 259 238 218 212 231 256 245 215 218 210 183 203 195 211 214
168 172 179 174 165 170 174 183 187 204 193 197 202 180 160 186 194 179 206 202 156 187 194 202 220 225 245 203 242 277 266 243 236 245 238 225 201 208 228 187 188 200 207
171 177 179 181 174 176 180 186 196 197 202 187 189 212 159 191 197 204 204 214 194 180 215 205 187 192 237 228 213 236 281 277 243 228 236 230 227 210 222 216 194 202 209
176 177 180 183 179 183 188 178 194 204 188 177 196 202 197 182 190 206 197 210 189 208 191 200 205 206 215 222 193 184 197 229 268 220 216 212 236 235 228 221 207 199 204
176 177 178 185 179 185 188 185 192 196 196 202 180 191 189 190 193 200 209 205 214 206 226 202 205 206 212 221 219 206 238 276 306 321 12 259 301 279 199 164 192 194 178
173 179 178 184 185 187 192 192 188 195 201 188 192 186 171 185 194 194 199 211 211 204 225 224 209 210 202 224 224 202 228 248 254 232 278 255 260 274 260 215 228 206 176
176 178 183 181 192 190 197 203 192 195 195 194 193 181 177 177 189 198 190 190 206 207 195 211 225 232 229 214 230 231 221 207 218 220 241 252 225 237 244 208 216 174 175